Regional Weather Roundup
Issued by NWS

Home | Current Version | Previous Version | Text Only | Print | Product List | Glossary On
Versions: 1 2 3 4 5 6 7 8 9 10 11 12 13 14 15 16 17 18 19 20 21 22 23 24 25 26 27 28 29 30 31 32 33 34 35 36 37 38 39 40 41 42 43 44 45 46 47 48 49 50
000
ASUS43 KMKX 061000
RWRWI

WISCONSIN REGIONAL WEATHER ROUNDUP
NATIONAL WEATHER SERVICE MILWAUKEE/SULLIVAN WI
500 AM CDT MON JUL 06 2015

NOTE: "FAIR" INDICATES FEW OR NO CLOUDS BELOW 12,000 FEET WITH NO
SIGNIFICANT WEATHER AND/OR OBSTRUCTIONS TO VISIBILITY.

WIZ001-002-006>008-014>016-023>028-061100-
NORTHWEST WISCONSIN

CITY           SKY/WX    TMP DP  RH WIND       PRES   REMARKS
SUPERIOR ARPT  CLOUDY    66  66  99 CALM      29.80S
ASHLAND        CLOUDY    67  66  97 SW3       29.81S
HAYWARD        LGT RAIN  67  65  93 S3        29.84S
SIREN          LGT RAIN  67  66  96 S10       29.82R
CUMBERLAND     RAIN      64  64 100 SE7       29.85F
RICE LAKE      RAIN      67  66  94 SE3       29.87S
CHETEK         HVY RAIN  68  67  99 CALM      29.87R
LADYSMITH      RAIN      68  67  96 SE5       29.89S
EAU CLAIRE     RAIN      70  66  88 E12       29.82F FOG
MENOMONIE      TSTM      70  69  98 W3        29.85S VSB 1
NEW RICHMOND   HVY RAIN  67  66  99 E8        29.83F
OSCEOLA        RAIN      68  68 100 E12       29.84F
$$

WIZ003>005-009-010-017-018-061100-
NORTH CENTRAL WISCONSIN

CITY           SKY/WX    TMP DP  RH WIND       PRES   REMARKS
MANITOWISH WTR LGT RAIN  67  66  95 S7        29.87S
ARBOR VITAE    CLOUDY    69  66  89 SW9       29.89S
WOODRUFF       CLOUDY    69  66  89 SW9       29.89S
RHINELANDER    CLOUDY    69  63  81 SW10      29.92R
EAGLE RIVER    CLOUDY    70  63  78 SW7       29.89F
LAND O LAKES   CLOUDY    70  64  80 S8        29.89F
PHILLIPS       CLOUDY    67  66  97 S6        29.88F FOG
TOMAHAWK       CLOUDY    66  63  89 CALM      29.91S
MEDFORD        CLOUDY    66  64  93 S5        29.90S
MERRILL        CLOUDY    69  65  88 S3        29.92R
$$

WIZ029-030-035-036-043>047-061100-
CENTRAL WISCONSIN

CITY           SKY/WX    TMP DP  RH WIND       PRES   REMARKS
WAUSAU         CLOUDY    68  64  87 SE5       29.90S
MOSINEE        CLOUDY    64  64 100 S7        29.92S FOG
MARSHFIELD     CLOUDY    68  62  81 S7        29.88F HAZE
STEVENS POINT  CLOUDY    65  63  90 S6        29.93R
WAUPACA        CLOUDY    67  66  96 SW3       29.92R
WAUTOMA        NOT AVBL
WISC RAPIDS    CLOUDY    68  63  84 S6        29.91S
CAMP DOUGLAS   NOT AVBL
$$

WIZ011>013-019>022-031-037>040-048>050-061100-
NORTHEAST WISCONSIN

CITY           SKY/WX    TMP DP  RH WIND       PRES   REMARKS
ANTIGO         CLOUDY    62  61  99 S7        29.93S FOG
SHAWANO        CLOUDY    68  63  84 CALM      29.91R
OCONTO         MOCLDY    67  67 100 S3        29.90R
STURGEON BAY   MOCLDY    64  57  77 S8        29.94S
GREEN BAY      MOCLDY    67  62  84 S6        29.92R HAZE
MANITOWOC      NOT AVBL
APPLETON       MOCLDY    66  61  82 S7        29.92S
CLINTONVILLE   MOCLDY    63  61  94 S5        29.91R
OSHKOSH        MOCLDY    67  62  84 SW9       29.92S
$$

WIZ032>034-041-042-053>061-061100-
SOUTHWEST WISCONSIN

CITY           SKY/WX    TMP DP  RH WIND       PRES   REMARKS
LA CROSSE      CLOUDY    74  67  78 S14       29.83F
SPARTA         CLOUDY    71  64  77 S7        29.87F
VIROQUA        CLOUDY    69  66  91 S10       29.89F
BOSCOBEL       CLOUDY    72  66  81 S3        29.89S HAZE
PRAIRIE DU CHI CLOUDY    72  65  77 SE6       29.87S
PLATTEVILLE    CLOUDY    69  67  90 S10       29.92F
$$

WIZ056-057-062-063-064-067-068-061100-
SOUTH CENTRAL WISCONSIN

CITY           SKY/WX    TMP DP  RH WIND       PRES   REMARKS
REEDSBURG      CLOUDY    68  65  89 S5        29.91R
BARABOO/DELLS  CLOUDY    68  62  83 S8        29.91S HAZE
LONE ROCK      NOT AVBL
MINERAL POINT  CLOUDY    68  64  88 SE8       29.93S FOG
MADISON        MOCLDY    70  63  78 S9        29.93R
MIDDLETON      MOCLDY    69  63  82 S9        29.94R
WATERTOWN      PTCLDY    65  65 100 S5        29.94S
MONROE         CLOUDY    66  63  88 S14       29.94S
JANESVILLE     MOCLDY    68  64  88 S8        29.94F
$$

WIZ051-052-058>065-066-070>072-061100-
SOUTHEAST WISCONSIN

CITY           SKY/WX    TMP DP  RH WIND       PRES   REMARKS
MILWAUKEE      PTCLDY    64  59  83 SE5       29.95F
WAUKESHA       PTCLDY    63  59  88 S5        29.96F
MILWAUKEE/TIMM PTCLDY    64  59  82 S7        29.96F
RACINE         CLEAR     65  60  84 S6        29.98F
BURLINGTON     PTCLDY    57  57  98 CALM      29.96F FOG
KENOSHA        CLEAR     64  60  87 S7        29.97F FOG
FOND DU LAC    MOCLDY    67  63  87 S9        29.92F
SHEBOYGAN      PTCLDY    62  59  90 W5        29.94F FOG
WEST BEND      PTCLDY    61  59  94 CALM      29.95F
JUNEAU         MOCLDY    64  62  91 S7        29.95S FOG
$$

LSZ147-162-061100-
LAKE SUPERIOR

STATION/POSITION TIME  TEMP    WIND        PRES    WAVE
                       AIR SEA DIR/SP/G            HT/PER
                 (UTC) (F)     (DEG/KT/KT) (MB)    (FT/S)
W MID LAKE BUOY  0850   51 39  210/  6/  6 1009.2R   1/ 3
DEVILS ISLAND    0900   63     250/ 14/ 16 1009.1R
PORT WING        0900   67     190/  4/  5 1009.8S
SAXON HARBOR     0900   67      CALM  /  7 1008.8
$$

LMZ867-665-643>646-061100-
LAKE MICHIGAN

STATION/POSITION TIME  TEMP    WIND        PRES    WAVE
                       AIR SEA DIR/SP/G            HT/PER
                 (UTC) (F)     (DEG/KT/KT) (MB)    (FT/S)
CHAMBERS ISLAND  0900   70     170/  6/ 13 1012.5F
N MID LAKE BUOY  0850   57 54  200/ 16/ 17 1013.4F   2/ 4
NORTHPORT PIER   0900   63     140/  5/  9 1012.5F
SISTER BAY       0844   67     160/ 12/ 13   N/A
ALGOMA LAKESHORE 0911          210/ 11/ 12   N/A
KEWAUNEE LAKESHO 0900   61     180/ 11/ 12 1013.1F
SHEBOYGAN LAKESH 0900   63     170/ 10/ 10 1014.3F
PORT WASHINGTON  0940   61     200/  4/  6 1014.2F
ATWATER BUOY     0900   63 59  160/  6/  8 1016.0F
MILWAUKEE LAKESH 0900   66     170/  4/  5   N/A
KENOSHA   LAKESH 0900   66     170/  6/  7 1014.9F
$$

TC  - TEMPERATURE IN CELSIUS
VSB - VISIBILITY IN STATUTE MILES
WCI - WIND CHILL INDEX
HX  - HEAT INDEX




USA.gov is the U.S. government's official web portal to all federal, state and local government web resources and services.